FLOCK 3R-15 (43736 NORAD) Tracking and Keplerian Element Data

This shows tracking and keplerian element data for the satellite.

Feedback or suggestion? Click here.




ElementValue
Catalog43736
NameFLOCK 3R-15
Epoch Orbit172
Epoch Day344.49939792
Epoch Year2018
RAAN49.5164
Inclination97.484
Eccentricity0.0020656
Argument of Perigee290.6865
Mean Anonmoly69.216
Mean Motion15.26881301
Decay Rate1.681E-05
L11 43736U 18096T 18344.49939792 .00001681 00000-0 66194-4 0 9995
L22 43736 97.4840 49.5164 0020656 290.6865 69.2160 15.26881301 1720

Live tracking and technical data element details for FLOCK 3R-15 (NORAD 43736). FLOCK 3R-15 can be tracked NOW for your location showing map with azimuth and elevation plus other details from your city location.

Track the satellite on the map from your city or location and see movement details for azimuth, elevation, latitude, longitude, range, height, and movement on the map or in text.







IsCatalogInMostPopularTable: catalog: 43736, numindb: 5
Update: records affected: 1



GetName: 43736 FLOCK 3R-15

Hit Count: updated at: Tue, 11 Dec 2018 02:10:01 GMT